TimeMDT,TemperatureF,Dew PointF,Humidity,Sea Level PressureIn,VisibilityMPH,Wind Direction,Wind SpeedMPH,Gust SpeedMPH,PrecipitationIn,Events,Conditions,WindDirDegrees,DateUTC
12:15 AM,54.1,17.4,24,30.12,10.0,South,4.6,-,N/A,,Clear,180,2013-06-23 06:15:00
12:35 AM,51.8,18.7,27,30.12,10.0,Calm,Calm,-,N/A,,Clear,0,2013-06-23 06:35:00
12:55 AM,51.6,19.4,28,30.13,10.0,Calm,Calm,-,N/A,,Clear,0,2013-06-23 06:55:00
1:15 AM,52.7,18.1,26,30.13,10.0,Calm,Calm,-,N/A,,Clear,0,2013-06-23 07:15:00
1:35 AM,49.1,19.8,31,30.13,10.0,Calm,Calm,-,N/A,,Clear,0,2013-06-23 07:35:00
1:55 AM,48.9,21.7,34,30.14,10.0,Calm,Calm,-,N/A,,Clear,0,2013-06-23 07:55:00
2:15 AM,47.3,21.4,36,30.14,10.0,Calm,Calm,-,N/A,,Clear,0,2013-06-23 08:15:00
2:35 AM,47.1,21.2,36,30.14,10.0,Calm,Calm,-,N/A,,Clear,0,2013-06-23 08:35:00
2:55 AM,44.8,22.5,41,30.14,10.0,Calm,Calm,-,N/A,,Clear,0,2013-06-23 08:55:00
3:15 AM,44.8,22.1,41,30.14,10.0,Calm,Calm,-,N/A,,Clear,0,2013-06-23 09:15:00
3:35 AM,43.7,22.5,43,30.14,10.0,Calm,Calm,-,N/A,,Clear,0,2013-06-23 09:35:00
3:55 AM,43.3,22.6,44,30.14,10.0,Calm,Calm,-,N/A,,Clear,0,2013-06-23 09:55:00
4:15 AM,41.4,23.2,48,30.14,10.0,Calm,Calm,-,N/A,,Clear,0,2013-06-23 10:15:00
4:35 AM,41.0,24.6,52,30.14,10.0,Calm,Calm,-,N/A,,Clear,0,2013-06-23 10:35:00
4:55 AM,39.9,23.5,52,30.14,10.0,Calm,Calm,-,N/A,,Clear,0,2013-06-23 10:55:00
5:15 AM,39.9,23.5,52,30.14,10.0,Calm,Calm,-,N/A,,Clear,0,2013-06-23 11:15:00
5:35 AM,39.2,24.8,56,30.14,10.0,Calm,Calm,-,N/A,,Clear,0,2013-06-23 11:35:00
5:55 AM,39.4,23.9,54,30.15,10.0,Calm,Calm,-,N/A,,Clear,0,2013-06-23 11:55:00
6:15 AM,37.8,24.3,58,30.15,10.0,Calm,Calm,-,N/A,,Clear,0,2013-06-23 12:15:00
6:35 AM,39.4,24.8,56,30.15,10.0,Calm,Calm,-,N/A,,Clear,0,2013-06-23 12:35:00
6:55 AM,40.3,24.1,52,30.15,10.0,Calm,Calm,-,N/A,,Clear,0,2013-06-23 12:55:00
7:15 AM,42.3,25.5,52,30.14,10.0,Calm,Calm,-,N/A,,Clear,0,2013-06-23 13:15:00
7:35 AM,43.5,25.2,48,30.14,10.0,Calm,Calm,-,N/A,,Clear,0,2013-06-23 13:35:00
7:55 AM,47.3,27.0,45,30.14,10.0,Calm,Calm,-,N/A,,Clear,0,2013-06-23 13:55:00
8:15 AM,48.4,25.0,40,30.13,10.0,Calm,Calm,-,N/A,,Clear,0,2013-06-23 14:15:00
8:35 AM,50.4,26.4,39,30.13,10.0,Calm,Calm,-,N/A,,Clear,0,2013-06-23 14:35:00
8:55 AM,52.7,25.2,34,30.13,10.0,Calm,Calm,-,N/A,,Clear,0,2013-06-23 14:55:00
9:15 AM,54.5,25.5,33,30.13,10.0,Calm,Calm,-,N/A,,Clear,0,2013-06-23 15:15:00
9:35 AM,57.2,24.8,29,30.12,10.0,Calm,Calm,-,N/A,,Clear,0,2013-06-23 15:35:00
9:55 AM,58.5,23.0,26,30.12,10.0,Calm,Calm,-,N/A,,Clear,0,2013-06-23 15:55:00
10:15 AM,61.9,23.2,23,30.11,10.0,Calm,Calm,-,N/A,,Clear,0,2013-06-23 16:15:00
10:35 AM,64.4,22.5,20,30.10,10.0,Calm,Calm,-,N/A,,Clear,0,2013-06-23 16:35:00
10:55 AM,66.2,17.2,15,30.10,10.0,Calm,Calm,-,N/A,,Clear,0,2013-06-23 16:55:00
11:15 AM,67.8,21.2,17,30.09,10.0,Calm,Calm,-,N/A,,Clear,0,2013-06-23 17:15:00
11:35 AM,69.1,18.7,15,30.09,10.0,Calm,Calm,-,N/A,,Clear,0,2013-06-23 17:35:00
11:55 AM,70.2,18.1,14,30.09,10.0,South,4.6,-,N/A,,Clear,180,2013-06-23 17:55:00
12:15 PM,70.9,16.0,12,30.08,10.0,Calm,Calm,-,N/A,,Clear,0,2013-06-23 18:15:00
12:35 PM,73.4,5.2,7,30.07,10.0,West,3.5,-,N/A,,Clear,280,2013-06-23 18:35:00
12:55 PM,73.9,-0.8,5,30.06,10.0,Calm,Calm,-,N/A,,Clear,0,2013-06-23 18:55:00
1:15 PM,75.9,6.1,7,30.05,10.0,NNW,3.5,-,N/A,,Clear,330,2013-06-23 19:15:00
1:35 PM,76.8,2.3,6,30.05,10.0,SW,5.8,-,N/A,,Clear,230,2013-06-23 19:35:00
1:55 PM,77.0,2.7,6,30.04,10.0,West,12.7,19.6,N/A,,Clear,260,2013-06-23 19:55:00
2:15 PM,77.9,5.4,6,30.03,10.0,West,10.4,-,N/A,,Clear,260,2013-06-23 20:15:00
2:35 PM,78.1,7.5,7,30.02,10.0,West,10.4,-,N/A,,Clear,260,2013-06-23 20:35:00
2:55 PM,78.6,9.0,7,30.02,10.0,West,11.5,18.4,N/A,,Clear,270,2013-06-23 20:55:00
3:15 PM,79.5,9.3,7,30.01,10.0,West,8.1,17.3,N/A,,Clear,260,2013-06-23 21:15:00
3:35 PM,77.4,8.1,7,30.01,10.0,SSE,4.6,-,N/A,,Clear,160,2013-06-23 21:35:00
3:55 PM,77.9,8.8,7,30.00,10.0,Calm,Calm,-,N/A,,Clear,0,2013-06-23 21:55:00
4:15 PM,79.0,9.9,7,30.00,10.0,West,3.5,-,N/A,,Clear,260,2013-06-23 22:15:00
4:35 PM,78.6,8.1,7,29.99,10.0,NE,3.5,-,N/A,,Clear,40,2013-06-23 22:35:00
4:55 PM,80.1,8.4,7,29.98,10.0,East,3.5,-,N/A,,Clear,100,2013-06-23 22:55:00
5:15 PM,77.9,10.8,8,29.97,10.0,Calm,Calm,-,N/A,,Clear,0,2013-06-23 23:15:00
5:35 PM,78.4,10.4,7,29.97,10.0,Calm,Calm,-,N/A,,Clear,0,2013-06-23 23:35:00
5:55 PM,79.3,10.9,7,29.96,10.0,NNW,5.8,-,N/A,,Clear,330,2013-06-23 23:55:00
6:15 PM,79.3,11.8,8,29.96,10.0,NW,5.8,-,N/A,,Clear,320,2013-06-24 00:15:00
6:35 PM,78.3,14.0,9,29.96,10.0,West,4.6,-,N/A,,Clear,260,2013-06-24 00:35:00
6:55 PM,77.7,16.5,10,29.96,10.0,West,3.5,-,N/A,,Clear,280,2013-06-24 00:55:00
7:15 PM,75.2,14.9,10,29.96,10.0,Calm,Calm,-,N/A,,Clear,0,2013-06-24 01:15:00
7:35 PM,72.1,25.3,17,29.96,10.0,Calm,Calm,-,N/A,,Clear,0,2013-06-24 01:35:00
7:55 PM,71.8,20.5,14,29.96,10.0,NNE,3.5,-,N/A,,Clear,20,2013-06-24 01:55:00
8:15 PM,68.5,28.0,22,29.96,10.0,ESE,4.6,-,N/A,,Clear,110,2013-06-24 02:15:00
8:35 PM,66.2,28.8,25,29.96,10.0,East,6.9,-,N/A,,Clear,100,2013-06-24 02:35:00
8:55 PM,65.8,26.6,23,29.96,10.0,East,8.1,-,N/A,,Clear,90,2013-06-24 02:55:00
9:15 PM,63.1,26.6,25,29.97,10.0,East,6.9,-,N/A,,Clear,90,2013-06-24 03:15:00
9:35 PM,63.9,26.1,24,29.98,10.0,East,8.1,-,N/A,,Clear,90,2013-06-24 03:35:00
9:55 PM,63.5,26.4,25,29.98,10.0,ENE,5.8,-,N/A,,Clear,70,2013-06-24 03:55:00
10:15 PM,63.9,25.7,24,29.98,10.0,East,5.8,-,N/A,,Clear,90,2013-06-24 04:15:00
10:35 PM,61.9,26.1,26,29.98,10.0,Calm,Calm,-,N/A,,Clear,0,2013-06-24 04:35:00
10:55 PM,60.3,27.0,28,29.99,10.0,Calm,Calm,-,N/A,,Clear,0,2013-06-24 04:55:00
11:15 PM,58.1,27.5,31,29.99,10.0,Calm,Calm,-,N/A,,Clear,0,2013-06-24 05:15:00
11:35 PM,56.3,28.6,35,29.99,10.0,Calm,Calm,-,N/A,,Clear,0,2013-06-24 05:35:00
11:55 PM,54.7,29.3,38,29.99,10.0,Calm,Calm,-,N/A,,Clear,0,2013-06-24 05:55:00